[[{"header":{"parameterUnit":"m.s-1","parameterCategory":1,"la1":30.2992,"la2":30.254,"lo1":-89.0895,"lo2":-89.0443,"dy":0.0025,"dx":0.0025,"nx":19,"ny":19,"refTime":"2026-03-18T21:00:00:Z","depth":0,"parameterNumber":2,"parameterNumberName":"U-component_of_WINDS"},"data":[0,0,0,1.7218,1.7221,1.7374,1.7375,1.7554,1.7556,0,0,0,0,0,0,0,0,0,0,0,1.7165,1.7166,1.7218,1.7222,1.7374,1.7375,1.7554,1.7556,0,0,0,0,0,0,0,0,0,0,0,1.7164,1.7165,1.7167,1.7222,1.7374,1.7375,1.7554,1.7444,0,0,0,0,0,0,0,0,0,0,1.7298,1.7241,1.7165,1.7167,1.7223,1.7374,1.7375,1.7439,1.7451,1.7478,0,1.7502,0,1.7532,1.7567,1.7567,0,0,0,1.7228,1.7231,1.728,1.7167,1.7224,1.7374,1.7307,1.7445,1.7459,1.7494,1.7505,1.7512,1.7535,1.7568,1.7569,1.7711,1.7711,0,0,1.7219,1.7188,1.727,1.7288,1.7265,1.7302,1.7312,1.7454,1.7463,1.7506,1.7517,1.7538,1.7569,1.757,1.771,1.7711,0,0,0,1.7191,1.7181,1.7227,1.728,1.7309,1.7306,1.7317,1.7457,1.7474,1.7519,1.754,1.757,1.7572,1.771,1.7711,1.7698,0,0,0,1.7186,1.7165,1.7223,1.7205,1.7306,1.7385,1.7317,1.7465,1.7482,1.7539,1.757,1.7573,1.771,1.771,1.7697,1.7696,0,0,0,1.7158,1.7162,1.7181,1.7203,1.7268,1.7384,1.741,1.7469,1.7494,1.7567,1.7574,1.7709,1.771,1.7697,1.7696,1.7723,0,0,0,1.7118,1.7169,1.718,1.7245,1.7266,1.7375,1.7409,1.7492,1.7553,1.7571,1.771,1.7711,1.7697,1.7696,1.7722,1.7739,1.7743,0,0,1.7164,1.7173,1.7214,1.7229,1.7327,1.7354,1.7451,1.7537,1.7573,1.7662,1.7666,1.7697,1.7696,1.7723,1.7782,1.7785,0,0,0,1.7217,1.7246,1.7279,1.7336,1.7403,1.7459,1.7534,1.7565,1.7643,1.7613,1.7716,1.7716,1.7733,1.7743,1.7746,1.7761,1.7714,1.7714,1.7714,1.7237,1.728,1.7349,1.7409,1.7463,1.7539,1.7586,1.7642,1.767,1.7693,1.7719,1.775,1.776,1.7762,1.7778,1.7733,1.7733,1.7733,1.7733,1.7307,1.7353,1.7388,1.7467,1.7511,1.7577,1.7651,1.7668,1.7735,1.7735,1.7752,1.7745,1.7765,1.7781,1.7733,1.7733,1.7733,1.7733,1.7733,1.7323,1.7352,1.739,1.7475,1.7535,1.7594,1.7657,1.7695,1.7732,1.7749,1.7779,1.778,1.7783,1.7761,1.7761,1.7761,1.7761,1.7762,1.7762,1.7324,1.7367,1.7415,1.7489,1.7529,1.7587,1.7662,1.7702,1.7756,1.7779,1.778,1.7803,1.7759,1.7746,1.7763,1.7763,1.7763,1.7763,1.7763,1.7376,1.737,1.7444,1.7484,1.7573,1.7628,1.7677,1.7755,1.7794,1.7823,1.7844,1.7805,1.7817,1.7815,1.7804,1.7836,1.7836,1.7836,1.7836,1.7387,1.7397,1.7481,1.7542,1.7607,1.7657,1.7737,1.7795,1.7854,1.7881,1.7882,1.7872,1.7868,1.7882,1.7879,1.7869,1.7916,1.7916,1.7916,1.7421,1.7438,1.75,1.7558,1.7629,1.7689,1.7765,1.7832,1.7899,1.792,1.7901,1.7898,1.7882,1.7875,1.7895,1.7889,1.7872,0,0]},{"header":{"parameterUnit":"m.s-1","parameterCategory":1,"la1":30.2992,"la2":30.254,"lo1":-89.0895,"lo2":-89.0443,"dy":0.0025,"dx":0.0025,"nx":19,"ny":19,"refTime":"2026-03-18T21:00:00:Z","depth":0,"parameterNumber":3,"parameterNumberName":"V-component_of_WINDS"},"data":[0,0,0,2.7365,2.7364,2.7344,2.7344,2.7333,2.7333,0,0,0,0,0,0,0,0,0,0,0,2.7381,2.7382,2.7365,2.7364,2.7344,2.7344,2.7333,2.7333,0,0,0,0,0,0,0,0,0,0,0,2.7381,2.7382,2.7382,2.7364,2.7344,2.7344,2.7333,2.7342,0,0,0,0,0,0,0,0,0,0,2.7359,2.7386,2.7382,2.7382,2.7364,2.7344,2.7344,2.7343,2.7342,2.7349,0,2.736,0,2.7346,2.7333,2.7333,0,0,0,2.7356,2.7387,2.7372,2.7382,2.7364,2.7344,2.7351,2.7342,2.7341,2.7348,2.7359,2.7358,2.7346,2.7333,2.7333,2.7404,2.7404,0,0,2.7357,2.7384,2.7372,2.7372,2.7378,2.7352,2.735,2.7341,2.7355,2.7359,2.7358,2.7346,2.7333,2.7333,2.7403,2.7404,0,0,0,2.7366,2.7385,2.7369,2.7373,2.7368,2.7351,2.735,2.7355,2.7348,2.7358,2.7346,2.7333,2.7333,2.7402,2.7403,2.7464,0,0,0,2.7366,2.739,2.737,2.7386,2.7368,2.7362,2.7364,2.7349,2.7347,2.7346,2.7333,2.7333,2.7401,2.7403,2.746,2.7487,0,0,0,2.7379,2.7391,2.7392,2.7388,2.738,2.7361,2.7353,2.7348,2.734,2.7333,2.7333,2.7401,2.7403,2.7457,2.7482,2.7512,0,0,0,2.74,2.7447,2.7393,2.7441,2.738,2.74,2.7353,2.7366,2.7368,2.7333,2.7401,2.7403,2.7456,2.7479,2.7509,2.7541,2.7557,0,0,2.7474,2.7457,2.7482,2.7434,2.7469,2.74,2.7444,2.742,2.7396,2.7402,2.7403,2.7461,2.7482,2.7511,2.7641,2.7654,0,0,0,2.7514,2.7533,2.7537,2.754,2.7523,2.751,2.7477,2.7467,2.7471,2.7405,2.748,2.7491,2.7507,2.7521,2.7532,2.7543,2.7411,2.7411,2.7411,2.7656,2.7621,2.766,2.7623,2.7626,2.759,2.7589,2.757,2.7535,2.7553,2.7554,2.7637,2.7655,2.7663,2.7675,2.7569,2.757,2.757,2.757,2.7759,2.7779,2.773,2.775,2.7712,2.7728,2.7695,2.7669,2.7676,2.7634,2.7646,2.7602,2.7678,2.7686,2.7574,2.7573,2.7573,2.7573,2.7572,2.7847,2.785,2.7838,2.7837,2.7839,2.7799,2.7808,2.7774,2.7741,2.7753,2.7749,2.7748,2.7741,2.7754,2.7754,2.7755,2.7755,2.7755,2.7755,2.7942,2.7927,2.7939,2.7924,2.792,2.791,2.7873,2.7867,2.7851,2.7825,2.7825,2.7786,2.7693,2.7669,2.776,2.7759,2.7758,2.7758,2.7758,2.8057,2.8025,2.8045,2.8041,2.8018,2.8021,2.7977,2.7967,2.7957,2.7962,2.7921,2.7858,2.7838,2.7829,2.7809,2.793,2.793,2.793,2.793,2.813,2.8117,2.8127,2.8122,2.8113,2.8074,2.8095,2.8065,2.803,2.8021,2.7998,2.7969,2.7962,2.7946,2.7934,2.7915,2.806,2.806,2.806,2.8198,2.8181,2.8206,2.8172,2.8151,2.8133,2.815,2.8144,2.8097,2.8065,2.8012,2.8007,2.7959,2.7946,2.7912,2.7895,2.7859,0,0]}]]